Preview of NWS' New Version of Forecast
This preview is not operational and should not be used for support decisions.
Latest weather observations around

Emporia, Emporia Municipal Airport (KEMP)

Using International System of Units (Switch to English Units)
Date/ Time (CDT) Wind (kph) Vis. (km) Weather Sky Cond. Temp (°C) Rel. Humidity Wind Chill (°C) Heat Index (°C) Pressure Precip. (cm)
Air Dwpt 6 hour Altimeter (hPa) Sea level (hPa) 1 hr 3 hr 6 hr
Max Min
Apr 22 14:53   16.09 Partly Cloudy SCT028 21 13     63%     1015.9 1015.4      
Apr 22 14:29 W 17 16.09 Partly Cloudy SCT025 20 14     68%     1016.3        
Apr 22 13:53 NW 22 16.09 Cloudy OVC026 20 13     65%     1016.3 1015.6      
Apr 22 13:32 WNW 17 16.09 Cloudy OVC028 20 14     68%     1016.3        
Apr 22 12:53 NW 21 16.09 Cloudy OVC030 20 14     68%     1015.9 1015.2      
Apr 22 12:00 WNW 17 16.09 Mostly Cloudy BKN031 22 14     61%   22 1014.9        
Apr 22 11:53 W 15 16.09 Mostly Cloudy BKN029 21 14     63%     1014.9 1014.3      
Apr 22 10:53 W 17 16.09 Cloudy OVC025 21 15     68%     1014.6 1013.7      
Apr 22 09:53 SSW 26 16.09 Cloudy BKN024 OVC034 21 14     68%     1013.6 1012.8      
Apr 22 08:53 S 24 16.09 Cloudy OVC038 19 13     70%     1013.2 1012.5      
Apr 22 07:53 S 24 16.09 Cloudy OVC043 18 13     73%     1012.9 1012.1      
Apr 22 06:53 S 24 16.09 Cloudy OVC049 17 13     75%     1011.9 1010.9      
Apr 22 05:53 SSE 22 16.09 Cloudy FEW032 OVC047 19 13     68%     1011.2 1010.4      
Apr 22 04:53 SE 21 16.09 Cloudy OVC036 18 10     58%     1011.2 1010.3      
Apr 22 03:53 ESE 15 16.09 Cloudy OVC040 18 10     60%     1011.5 1010.6      
Apr 22 02:53 NNE 8 16.09 Cloudy OVC045 18 10     58%     1012.5 1011.4      
Apr 22 02:35 NNW 11 16.09 Cloudy OVC049 18 9     56%     1012.9        
Apr 22 02:20 NNW 17 16.09 Thunderstorms OVC049 19 9     52%     1013.2        
Apr 22 02:11 NNW 22 16.09 Cloudy BKN047 OVC055 19 9     52%     1013.2        
Apr 22 01:53   16.09 Mostly Cloudy BKN046 21 12     57%     1013.2        
Apr 22 00:53 S 41 16.09 Clear and Windy CLR 21 12     57%     1009.2 1008      
Apr 21 23:53   16.09 Clear CLR 21 11     51%     1008.8 1007.8      
Apr 21 22:53 S 41 16.09 Clear and Windy CLR 22 10     47%   21 1008.5 1007.6      
Apr 21 21:53 S 39 16.09 Clear and Windy CLR 22 9     44%   22 1008.1 1007.2      
Apr 21 20:53 S 39 16.09 Clear and Windy CLR 23 9     43%   22 1007.5 1006.8      
Apr 21 19:53 S 39 16.09 Clear and Windy CLR 24 10     40%   24 1006.8 1006.3      
Apr 21 18:53 S 39 16.09 Clear and Windy CLR 26 10     37%   25 1006.8 1006.1      
Apr 21 17:53 S 33 16.09 Clear and Windy CLR 27 11     36%   26 1006.8 1005.9      
Apr 21 16:53 S 39 16.09 Clear and Windy CLR 28 11     34%   28 1006.4 1005.5      
Apr 21 15:53 S 52 16.09 Clear and Breezy CLR 28 10     33%   27 1006.4 1005.6      
Apr 21 14:53 S 52 16.09 Clear and Breezy CLR 29 12     36%   28 1006.8 1005.8      
Apr 21 13:53 S 45 16.09 Clear and Breezy CLR 28 13     38%   28 1006.8 1006.1      
Apr 21 12:53 S 48 16.09 Clear and Breezy CLR 27 12     38%   27 1007.5 1006.7      
Apr 21 11:53 S 45 16.09 Clear and Breezy CLR 24 12     45%   24 1008.1 1007.4      
Apr 21 10:53   16.09 Clear CLR 22 11     49%   22 1008.5 1007.8      
Apr 21 09:53   16.09 Clear CLR 21 11     54%     1008.5 1007.8      
Apr 21 08:53 S 42 16.09 Clear and Breezy CLR 17 11     67%     1008.8 1008.2      
Apr 21 07:53 S 21 16.09 Mostly Clear FEW080 16 10     69%     1009.5 1008.8      
Apr 21 06:53 SSE 28 16.09 Mostly Clear FEW100 14 9     72%     1009.5 1008.9      
Apr 21 05:53 SSE 24 16.09 Clear CLR 14 9     72%     1009.2 1008.7      
Apr 21 04:53 SSE 22 16.09 Clear CLR 14 9     70%     1009.2 1008.6      
Apr 21 03:53 SSE 24 16.09 Clear CLR 16 9     64%     1009.2 1008.3      
Apr 21 02:53 S 30 16.09 Clear CLR 16 9     64%     1009.2 1008.4      
Apr 21 01:53 S 24 16.09 Clear CLR 15 9     67%     1009.5 1008.9      
Apr 21 00:53 S 22 16.09 Clear CLR 16 8     62%     1009.8 1009.2      
Apr 20 23:53 S 21 16.09 Clear CLR 16 9     62%     1009.8 1009.2      
Apr 20 22:53 S 24 12.87 Clear CLR 17 8     56%     1009.5 1009.1      
Apr 20 21:53 S 21 16.09 Clear CLR 18 8     54%     1009.8 1009.4      
Apr 20 20:53 S 24 11.27 Clear CLR 20 7     43%     1009.2 1008.7      
Apr 20 19:53 S 22 9.66 Haze CLR 22 7     38%   21 1008.5 1008.4      
Apr 20 18:53 S 24 16.09 Clear CLR 24 7     34%   23 1008.8 1008.7      
Apr 20 17:53 S 30 16.09 Clear CLR 25 7     31%   24 1009.2 1009.1      
Apr 20 16:53 S 30 16.09 Clear CLR 26 6     29%   25 1009.8 1009.7      
Apr 20 15:53 S 30 16.09 Clear CLR 26 6     29%   25 1010.8 1010.5      
Apr 20 14:53 S 30 16.09 Mostly Clear FEW041 24 6     31%   24 1011.9 1011.6      
Apr 20 13:53 SSW 24 16.09 Clear CLR 24 6     31%   23 1012.5 1012.4      
Apr 20 12:53 S 24 16.09 Clear CLR 23 5     31%   22 1013.2 1013.1      
Apr 20 11:53 S 26 16.09 Clear CLR 21 4     32%     1014.2 1014.1      
Apr 20 10:53 S 24 16.09 Clear CLR 19 3     34%     1014.9 1014.6      
Apr 20 09:53 SSW 15 16.09 Clear CLR 17 4     43%     1014.9 1014.9      
Apr 20 08:53 SSW 13 16.09 Clear CLR 13 6     62%     1015.2 1015.1      
Apr 20 07:53 SSE 8 16.09 Clear CLR 8 5     80% 7   1015.2 1015.4      
Apr 20 06:53 SW 9 16.09 Clear CLR 5 1     76% 3   1015.2 1015.6      
Apr 20 05:53 S 8 16.09 Clear CLR 4 2     86% 2   1015.2 1015.3      
Apr 20 04:53 WNW 9 16.09 Clear CLR 4 2     86% 2   1015.2 1015.5      
Apr 20 03:53 Calm 16.09 Clear CLR 6 1     68%     1014.9 1014.9      
Apr 20 02:53 S 9 16.09 Clear CLR 6 2     76% 4   1014.9 1014.9      
Apr 20 01:53 Calm 16.09 Clear CLR 7 2     70%     1015.2 1015.4      
Apr 20 00:53 Calm 16.09 Clear CLR 8 1     60%     1015.6 1015.6      
Apr 19 23:53 W 5 16.09 Clear CLR 10 0     50%     1015.9 1015.9      
Apr 19 22:53 NW 5 16.09 Clear CLR 11 1     52%     1016.3 1016.3      
Apr 19 21:53 Calm 16.09 Clear CLR 11 1     48%     1015.9 1016      
Apr 19 20:53 NNW 5 16.09 Clear CLR 13 -2     35%     1015.6 1015.7      
Apr 19 19:53 N 9 16.09 Clear CLR 14 -1     36%     1015.6 1015.7      
Apr 19 18:53 N 17 16.09 Clear CLR 17 -2     28%     1015.6 1015.7      
Apr 19 17:53 N 17 16.09 Clear CLR 18 -2     26%     1015.6 1015.6      
Apr 19 16:53 N 24 16.09 Clear CLR 18 -2     26%     1015.9 1015.9      
Apr 19 15:53 N 30 16.09 Clear CLR 18 -1     27%     1016.3 1016.2      
May 15 08:14 Calm 16.09 Cloudy FEW017 OVC036 18 17     93%     1015.9        
May 15 05:53 W 5 16.09 Mostly Cloudy BKN046 17 16     96%     1013.9 1013.4      
May 15 01:53 Calm 16.09 Light Rain SCT050 SCT070 BKN095 18 16     90%     1013.9 1012.9 0    
May 14 18:32   2.82 Rain and Fog/Mist FEW050 BKN060 OVC090 21 18     87%     1009.8   0    
May 13 13:53 S 30 16.09 Clear CLR 31 21     55%   33 1012.9 1011.7      
May 13 06:53 S 22 16.09 Clear CLR 19 17     87%     1013.9 1012.8      
May 12 13:53 S 30 16.09 Cloudy OVC048 28 18     56%   29 1010.8 1009.7      
May 12 02:53 S 28 16.09 Clear CLR 22 16     68%   22 1009.2 1008.1      
Jun 12 07:53   16.09 Clear CLR 22 19     84%   23 1011.5 1010.3      
Jun 12 01:53 S 26 16.09 Clear CLR 23 19     79%   23 1010.8 1009.5      
Jun 11 11:53   16.09 Clear CLR 29 19     57%   30 1009.5 1008.2      
Jun 10 23:53 SSE 28 16.09 Clear CLR 23 19     79%   24 1008.8 1007.7      
Jun 10 21:53 SSE 28 16.09 Clear   25 21     77%   26 1007.8 1006.9      
Jun 10 12:53 S 35 16.09 Mostly Clear and Windy FEW028 28 21     65%   30 1008.1 1007.1      
Jun 10 09:20 S 35 16.09 Partly Cloudy and Windy SCT018 23 18     73%   23 1009.2        
Jun 10 07:53 S 33 16.09 Mostly Cloudy and Windy BKN022 20 17     81%     1009.5 1008.6      
Jun 08 21:53 S 11 16.09 Clear CLR 18 13     70%     1012.9 1012.3      
Jun 08 18:53 SSE 9 16.09 Clear CLR 26 11     39%   25 1013.2 1012.5      
Jun 08 09:53 S 9 16.09 Clear CLR 23 10     44%   22 1018.3 1017.6      
Jun 08 07:53 Calm 16.09 Clear CLR 16 13     86%     1018.3 1017.7      
Jun 06 02:53 E 9 16.09 Clear CLR 20 17     81%     1013.6 1012.3